www.pogodaiklimat.ru

Погода и климат >> Архив погоды >> Канада >> Rankin Inlet


ПОГОДА в Rankin Inlet

  • Прогноз погоды в Rankin Inlet
  • Монитор погоды в Rankin Inlet
  • Климат города

АРХИВ ПОГОДЫ в Rankin Inlet

Время (UTC), дата Ветер
(напр.,м/с)
 
Видим.   Явления Облачность Т
(С)
Тd
(С)
f
(%)
Тe
(С)
Тes
(С)
Комфортность P
(гПа)
Po
(гПа)
Тmin
(С)
Tmax
(С)
R
(мм)
R24
(мм)
S
(см)
12 22.04 С 10 4000 м слабый снег 10/10 1000 м
[Sc]
-22.0 -24.6 79 -36 -36 опасность
обморожения
1025.6 1021.1 -22.1 -14.0 0.0 34
15 22.04 С 11 1600 м 10/10 1000 м
[]
-21.8 -24.5 79 -36 -36 опасность
обморожения
1025.4 1021.0
18 22.04 С 11 3200 м слабый снег {метель} 10/10 1000 м
[Sc]
-19.4 -22.2 78 -33 -33 опасность
обморожения
1025.3 1020.9 -22.5 -19.4 0.0 34
21 22.04 С 10 19 км 6/6 1000 м
[]
-18.4 -21.2 79 -31 -31 опасность
обморожения
1025.3 1020.8
00 23.04 С 8 24 км {снег, метель} 8/4 1000 м
[Sc Ci fib]
-19.1 -21.9 78 -31 -31 опасность
обморожения
1025.4 1020.9 -22.5 -18.2 0.0 34
03 23.04 С 7 24 км 4/4 1000 м
[]
-23.0 -25.6 79 -35 -35 опасность
обморожения
1025.2 1020.7
06 23.04 С 8 12 км ледяные иглы 4/0
[Ci fib]
-25.1 -27.9 77 -39 -39 опасность
обморожения
1024.4 1019.9 -25.1 -18.2 0.0 191
09 23.04 С 8 12 км 4/0
[]
-27.3 -30.3 76 -42 -42 опасность
обморожения
1024.1 1019.6
12 23.04 С 8 16 км ледяные иглы {снег} 8/5 1000 м
[Sc Ci fib]
-27.1 -30.1 76 -41 -41 опасность
обморожения
1024.1 1019.6 -27.9 -18.2 0.0 34
15 23.04 С 8 9000 м 10/10 600 м
[]
-23.9 -26.9 76 -38 -38 опасность
обморожения
1024.7 1020.2
18 23.04 С 8 12 км ледяные иглы {снег} 6/6 600 м
[Sc]
-20.5 -23.6 76 -33 -33 опасность
обморожения
1025.3 1020.8 -27.9 -20.5 0.0 34
21 23.04 С 8 24 км 6/6 600 м
[]
-18.8 -21.9 76 -31 -30 опасность
обморожения
1025.6 1021.1
00 24.04 С 6 24 км {снег} 4/4 1000 м
[Sc]
-17.0 -20.0 77 -27 -27 1025.9 1021.4 -27.9 -16.9 0.0 34
03 24.04 С 6 24 км 5/5 300 м
[]
-20.8 -23.4 80 -32 -32 опасность
обморожения
1026.7 1022.2
06 24.04 С 5 24 км 1/1 600 м
[Sc]
-24.1 -26.8 78 -35 -35 опасность
обморожения
1026.7 1022.2 -27.9 -16.9 161
09 24.04 С 5 24 км ясно -26.8 -29.6 77 -38 -38 опасность
обморожения
1026.6 1022.1
12 24.04 С 6 24 км 9/9 600 м
[Sc]
-23.7 -26.5 78 -36 -36 опасность
обморожения
1026.5 1022.0 -27.4 -16.9
15 24.04 С 7 24 км 1/1 300 м
[]
-22.2 -25.5 74 -35 -33 опасность
обморожения
1027.4 1022.9
18 24.04 С 7 24 км 10/10 300 м
[Sc]
-16.2 -19.5 76 -27 -27 1027.4 1022.9 -27.4 -16.2
21 24.04 С 9 24 км 3/3 300 м
[]
-16.8 -19.9 77 -29 -28 1027.7 1023.2
00 25.04 С 8 24 км ясно -17.8 -20.8 77 -30 -29 1027.6 1023.1 -27.4 -16.0
03 25.04 С 7 24 км ясно -21.9 -24.6 79 -34 -34 опасность
обморожения
1028.4 1023.9
06 25.04 СЗ 4 24 км ясно -24.7 -27.4 78 -35 -35 опасность
обморожения
1029.3 1024.8 -27.4 -16.0 221
09 25.04 С 5 24 км ясно -26.5 -29.0 79 -38 -38 опасность
обморожения
1029.8 1025.3
12 25.04 С 4 800 м туман 4/4 50 м
[St]
-22.8 -25.4 79 -32 -31 опасность
обморожения
1030.3 1025.8 -27.0 -16.0 34
15 25.04 ЮЗ 2 400 м н/о -22.6 -25.3 79 -29 -29 1030.2 1025.7
18 25.04 ЮЗ 4 24 км {туман} ясно -19.3 -21.6 82 -28 -22 1029.5 1025.0 -27.0 -19.2
21 25.04 ЮЗ 6 24 км 3/0
[]
-16.0 -18.1 84 -26 -23 1027.9 1023.4
00 26.04 ЮЗ 8 24 км 5/3 200 м
[St Ci fib]
-15.6 -17.9 82 -27 -26 1025.8 1021.4 -27.0 -15.1
03 26.04 Ю 6 24 км 4/0
[]
-16.7 -19.5 79 -26 -26 1024.0 1019.6
06 26.04 Ю 5 24 км 4/0
[Ac trans]
-16.3 -18.3 84 -26 -26 1022.2 1017.8 -27.0 -15.1 231
09 26.04 Ю 9 4000 м 1/0
[]
-14.3 -16.0 87 -26 -26 1019.3 1014.9
12 26.04 Ю 7 24 км 5/5 300 м
[Sc]
-13.9 -15.8 86 -24 -24 1016.4 1012.1 -17.8 -15.1
15 26.04 Ю 6 9000 м 8/8 100 м
[]
-9.8 -11.7 86 -18 -18 1014.9 1010.6
18 26.04 Ю 6 24 км 9/4 1500 м
[Sc Ac As]
-8.9 -12.4 76 -17 -16 1012.9 1008.6 -19.3 -8.6
21 26.04 ЮЗ 7 24 км 6/0
[]
-5.6 -8.0 83 -14 -12 1011.8 1007.5
00 27.04 ЮЗ 6 24 км 6/3 300 м
[Sc Ac As]
-2.4 -4.4 86 -9 -9 1011.2 1007.0 -17.8 -2.3
03 27.04 З 5 24 км 3/3 600 м
[]
-7.5 -8.7 91 -15 -15 1013.2 1008.9
06 27.04 С 5 24 км 3/0 2000 м
[Ac As Ci fib]
-13.8 -15.4 88 -22 -22 1014.7 1010.4 -17.8 -2.3 101
09 27.04 СЗ 2 24 км 1/0
[]
-17.4 -19.2 86 -23 -23 1016.0 1011.7
12 27.04 С 3 24 км 5/0
[Ac As Ci fib]
-17.9 -20.0 84 -25 -25 1017.5 1013.2 -19.1 -2.3 34
15 27.04 С 2 24 км 6/0
[]
-13.8 -17.0 77 -18 -13 1018.1 1013.8
18 27.04 С 1 24 км 1/0
[Ac trans]
-9.5 -12.8 77 -10 +2 1017.8 1013.5 -19.1 -9.5
21 27.04 ЮВ 3 24 км 5/5 300 м
[]
-8.1 -11.5 76 -14 -11 1017.9 1013.6
00 28.04 Ю 6 12 км 10/10 50 м
[St]
-6.1 -7.3 91 -14 -14 1016.9 1012.6 -19.1 -6.1
03 28.04 Ю 4 1200 м 1/0
[]
-6.5 -7.3 94 -13 -13 1016.2 1011.9
06 28.04 ЮЗ 3 24 км {туман} ясно -8.9 -10.0 92 -14 -14 1015.6 1011.3 -19.1 -5.4
09 28.04 С 8 16 км 1/0
[]
-12.0 -13.5 89 -22 -22 1015.9 1011.6
12 28.04 С 11 16 км позёмок 8/6 1500 м
[Sc Ac As]
-11.1 -12.6 89 -22 -22 1018.9 1014.6 -12.8 -5.4 34
15 28.04 С 13 12 км ясно -15.1 -17.2 84 -28 -28 1020.4 1016.1
18 28.04 С 13 2400 м метель ясно -14.8 -17.4 81 -28 -28 1021.4 1017.1 -15.2 -8.5 34
21 28.04 С 12 3200 м ясно -13.8 -16.4 81 -26 -26 1023.2 1018.8
00 29.04 С 10 12 км метель ясно -14.8 -17.4 81 -27 -27 1024.2 1019.8 -15.2 -11.1 34
03 29.04 С 8 24 км ясно -17.8 -20.2 81 -30 -30 1025.5 1021.1
06 29.04 С 10 24 км позёмок ясно -20.2 -22.8 80 -34 -34 опасность
обморожения
1025.9 1021.5 -20.2 -8.5 202
09 29.04 С 9 24 км ясно -22.2 -25.1 77 -36 -36 опасность
обморожения
1026.2 1021.8

 

Местоположение метеостанции Rankin Inlet (Канада): широта 62.82 долгота -92.11 высота над уровнем моря 31 м.

В архиве по умолчанию представлена погода в Rankin Inlet за последнюю неделю. Архивные данные за месяц целиком и за предыдущие месяцы, начиная с января 2011 года, Вы можете получить, выбрав интересующий диапазон дат из раскрывающегося списка и нажав кнопку "Ввод!".

Внимание! Время в таблицах - всемирное. Для получения местного времени необходимо прибавить поправку, которая в Rankin Inlet равна -6 ч.

Смотрите также архив погоды в соседних городах и на ближайших метеорологических станциях:

Погода в Arviat Climate (Канада) (217 км)
Погода в Arviat (Канада) (217 км)
Погода в Arviat Airport (Канада) (218 км)
Погода в Baker Lake Climate (Канада) (255 км)
Погода в Baker Lake Airport (Канада) (256 км)
Погода в Wager Bay (Канада) (364 км)
Погода в Back River MAPS (Канада) (419 км)
Погода в Coral Harbour Arpt (Канада) (460 км)
Погода в Churchill Climate (Канада) (468 км)
Погода в Dubawnt Lake (Канада) (486 км)

Пояснения к столбцам:

Ветер - указаны скорость ветра в м/с - средняя за 10 мин, порывы в срок и между сроками (в фигурных скобках) и направление, откуда дует ветер: С - северный, СВ - северо-восточный, В - восточный, ЮВ - юго-восточный, Ю - южный, ЮЗ - юго-западный, З - западный, СЗ - северо-западный.
Видимость - горизонтальная дальность видимости в метрах или километрах. При видимости от 1 до 10 км при отсутствии осадков обычно наблюдается дымка, при ухудшении видимости до 1 км и менее - туман. В сухую погоду видимость может ухудшаться дымом, пылью или мглою.
Явления - указаны атмосферные явления, наблюдавшиеся в срок или в последний час перед сроком; фигурными скобками обозначены явления, наблюдавшиеся между сроками (за 1-3 часа до срока); квадратными скобками обозначены град или гололедные отложения с указанием их диаметра в мм.
Облачность - указаны через наклонную черту общая и нижняя облачность в баллах и высота нижней границы облаков в метрах; квадратными скобками обозначены формы облаков: Ci - перистые, Cs - перисто-слоистые, Cc - перисто-кучевые, Ac - высококучевые, As - высокослоистые, Sc - слоисто-кучевые, Ns - слоисто-дождевые, Cu - кучевые, Cb - кучево-дождевые. Подробнее классификацию облаков см. в Атласе облаков (PDF).
T - Температура воздуха - температура, измеренная на высоте 2 м над землей.
Td - Температура точки росы - температура, при понижении до которой содержащийся в воздухе водяной пар достигнет насыщения.
f - Относительная влажность воздуха - влажноcть воздуха, измеренная на высоте 2 м над землей.
Te - Эффективная температура - температура, которую ощущает одетый по сезону человек в тени. Характеристика душности погоды. При расчете учитывается влияние влажности воздуха и скорости ветра на теплоощущения человека.
Tes - Эффективная температура на солнце - температура, которую ощущает человек, с поправкой на солнечный нагрев. Характеристика знойности погоды. Зависит от высоты солнца над горизонтом, облачности и скорости ветра. Ночью, в пасмурную погоду, а также при ветре 12 м/с и более поправка равна нулю.
P - Атмосферное давление - приведенное к уровню моря атмосферное давление.
Po - Атмосферное давление - измеренное на уровне метеостанции атмосферное давление.
Tmin - Минимальная температура - минимум температуры воздуха на высоте 2 м над землей.
Tmax - Максимальная температура - максимум температуры воздуха на высоте 2 м над землей.
R - Количество осадков - Количество выпавших осадков за период времени, мм. При наведении курсора мыши на число - период времени, за который выпало указанное количество осадков.
R24 - Количество осадков - Количество выпавших осадков за 24 часа, мм.
S - Снежный покров - Высота снежного покрова, см. При наведении курсора мыши на число - состояние снежного покрова и степень покрытия местности в баллах.